Wind_Speed
14 13 13 14 15 16 16 16 16 15 14 14 13 13 13 12 11 11 11 11 10 10 10 10 10 10 11 10 10 10 10 10 9 9 8 8 7 6 6 5 4 5
16 16 15 15 15 16 16 16 16 15 14 14 13 13 12 11 11 11 11 10 10 11 10 11 11 11 11 11 11 11 11 10 10 9 9 8 8 7 6 6 5 5
18 18 17 17 16 16 16 16 16 15 14 14 14 13 12 12 12 12 11 11 11 11 11 11 11 11 11 11 11 11 11 10 10 10 9 9 8 7 6 6 6 6
20 20 19 18 17 16 16 16 16 16 15 15 15 14 13 13 13 13 13 12 12 12 11 11 11 10 10 10 10 10 10 10 10 10 9 9 8 7 6 6 6 6
21 20 20 19 18 17 17 17 17 17 17 16 16 15 15 15 15 14 14 13 13 12 12 11 10 10 9 9 9 8 8 9 9 9 9 8 7 6 6 6 6 6
22 21 20 20 19 19 18 18 18 18 18 17 17 16 16 16 16 15 14 14 13 13 12 11 10 9 9 8 7 7 7 8 8 8 8 8 7 7 6 6 6 6
24 23 22 22 21 21 20 19 19 19 19 18 18 17 17 16 16 15 15 14 13 13 12 11 10 10 9 8 7 6 7 7 7 7 7 7 7 7 7 7 7 7
26 25 24 23 23 22 22 21 21 20 20 19 19 18 18 17 16 16 15 14 14 13 12 11 11 10 10 8 7 7 6 7 7 7 7 7 7 7 7 7 7 7
27 26 25 24 24 24 24 23 23 22 22 21 21 20 20 19 18 17 16 16 15 14 13 12 11 11 10 9 9 8 7 7 7 8 8 7 8 8 7 7 7 7
28 27 27 26 26 26 26 25 25 24 24 24 23 23 22 21 20 19 18 18 17 16 15 14 12 12 11 10 10 10 9 8 8 8 8 8 8 8 8 7 7 8
29 29 29 28 28 28 28 27 27 26 26 26 25 25 24 24 23 22 21 20 20 19 17 15 14 13 12 11 11 11 11 10 10 10 9 9 9 9 8 8 8 8
31 31 31 31 31 30 29 29 28 28 28 27 27 26 26 25 24 24 23 23 22 20 19 18 16 15 15 14 13 13 12 12 11 11 10 10 10 9 9 9 9 8
31 33 33 32 32 31 31 30 29 29 29 29 29 28 27 26 26 26 25 25 24 22 21 20 18 18 17 16 15 15 14 14 13 12 11 11 11 10 11 11 10 10
28 31 33 33 33 33 32 31 30 30 30 30 30 29 28 28 28 27 27 26 25 24 23 22 21 20 20 19 18 17 16 15 14 13 12 12 12 12 12 12 12 12
26 28 31 33 35 35 34 33 33 31 31 30 29 29 29 28 28 28 27 27 27 26 25 24 23 22 22 21 20 19 18 17 16 15 14 14 13 13 14 14 14 15
28 28 30 32 35 36 36 36 35 33 32 31 30 30 29 29 29 29 28 28 28 28 27 25 24 24 24 23 23 22 21 19 18 17 17 16 16 16 16 17 17 17
34 33 33 33 34 36 37 37 36 35 34 33 32 31 31 31 30 30 29 30 30 29 28 26 26 26 25 25 24 23 22 21 20 20 19 18 18 18 18 19 19 19
37 37 37 36 36 36 37 38 38 37 37 36 35 34 33 33 32 32 31 31 31 30 29 28 27 27 27 26 25 24 23 22 22 21 20 20 20 20 21 21 21 21
37 38 39 39 38 38 38 39 40 40 39 39 38 37 35 33 33 33 33 32 32 32 31 30 29 29 28 27 26 25 24 23 22 21 21 21 21 22 22 23 22 22
34 35 36 36 36 38 39 40 41 41 41 41 41 40 38 36 35 34 34 34 34 33 33 32 31 30 29 28 27 26 25 24 23 22 22 22 23 23 23 23 23 23
30 29 29 30 31 33 36 40 43 44 42 42 42 42 41 40 39 38 36 36 35 34 33 33 32 32 31 29 28 27 26 25 24 24 24 23 23 23 23 23 23 23
29 27 25 26 27 28 30 34 40 45 46 43 42 42 42 42 42 41 40 39 37 35 34 34 35 34 32 31 30 29 28 27 26 26 25 25 25 24 24 24 23 23
27 24 20 18 19 19 20 23 28 37 44 46 45 43 42 42 42 43 43 42 40 38 37 37 37 35 33 32 31 30 29 28 27 27 27 27 26 25 25 25 24 23
23 22 18 14 13 13 14 15 17 21 30 40 45 45 43 42 41 42 43 42 41 40 40 40 39 36 33 32 31 32 32 31 29 29 29 28 27 26 26 25 25 24
23 22 19 16 15 14 13 14 14 13 15 22 32 40 42 39 39 40 40 39 40 41 39 38 38 35 33 33 32 33 34 33 32 31 30 29 29 28 27 27 26 26
27 26 24 22 21 20 19 18 16 14 13 15 20 28 34 35 36 39 38 37 38 38 38 38 37 35 35 35 35 35 35 33 33 33 32 31 31 30 29 28 28 28
Wind_Direction
198 198 202 207 208 208 206 204 202 200 196 193 193 195 199 201 202 205 209 211 213 214 216 218 223 228 230 230 229 229 230 230 230 231 229 226 225 228 232 235 232 228
201 200 201 204 207 210 210 208 207 206 203 202 203 205 207 210 212 216 219 222 224 227 229 230 233 236 236 237 236 235 235 233 231 233 232 229 227 225 223 228 231 229
203 203 202 203 206 210 212 212 212 212 212 212 213 215 217 220 223 226 229 232 232 234 236 236 239 243 245 247 247 246 245 242 240 239 238 235 232 228 224 225 230 234
207 206 205 204 206 208 211 213 213 214 216 218 219 221 224 227 230 232 235 238 240 241 242 242 244 249 255 259 259 256 253 251 249 247 246 244 239 233 228 226 227 232
210 210 209 208 208 209 210 213 214 215 217 219 220 221 224 228 231 234 236 239 242 243 245 248 252 256 263 269 270 268 264 261 259 257 257 257 253 245 237 233 232 233
212 211 211 212 212 212 213 214 215 216 217 219 221 222 224 227 229 231 233 236 239 241 245 251 256 261 266 271 275 276 275 272 270 269 267 266 266 263 258 253 247 244
213 212 211 212 213 214 215 216 216 218 218 220 221 222 224 226 228 230 231 234 238 241 245 249 255 260 264 267 271 272 272 273 274 274 272 270 272 273 270 266 262 257
215 213 213 213 213 215 217 217 218 219 219 220 221 222 223 226 229 231 232 235 239 242 244 248 252 257 262 265 268 267 265 266 269 271 274 276 276 278 277 277 276 272
217 216 215 215 215 217 218 218 219 220 220 221 222 222 223 225 227 230 234 236 240 243 245 248 252 257 263 268 271 271 267 265 266 268 272 276 279 283 287 289 289 287
219 219 218 218 218 219 219 220 220 220 221 222 223 223 223 224 225 228 232 236 239 243 245 248 253 258 264 269 273 275 274 270 266 265 267 271 275 282 288 291 293 292
222 221 221 220 220 221 221 221 221 221 223 224 224 225 225 225 225 227 229 232 236 239 242 245 249 253 258 262 268 273 275 273 268 265 265 266 269 273 278 281 284 286
225 224 223 223 222 223 223 224 223 223 224 225 226 227 227 227 228 229 230 232 234 236 238 241 243 247 251 253 258 263 267 269 268 264 262 262 264 266 268 270 271 274
227 227 227 227 226 226 227 227 227 226 226 227 228 228 229 229 230 230 232 233 234 235 236 238 239 242 245 247 250 254 259 262 264 263 262 260 259 260 262 263 263 263
230 230 231 231 230 230 230 230 230 229 229 229 230 230 231 232 232 233 234 235 236 236 236 236 237 238 241 243 246 249 253 257 260 261 260 258 257 257 258 259 260 260
233 233 233 233 233 232 231 231 231 230 230 230 231 232 233 234 235 235 235 236 237 238 238 237 237 238 239 241 243 245 248 252 255 257 257 257 256 256 256 257 258 258
235 235 234 233 233 234 233 233 233 232 231 231 230 231 232 233 235 237 237 237 237 238 238 238 238 239 240 241 243 245 247 249 250 252 254 255 255 255 256 257 258 259
238 237 236 234 232 233 234 235 235 235 235 233 231 230 230 230 231 234 236 237 237 237 237 236 236 238 240 242 244 246 247 250 252 253 254 255 257 257 258 258 260 262
241 240 239 238 235 232 232 233 234 236 237 237 236 233 231 230 229 230 232 235 237 238 236 235 235 236 238 240 242 245 247 250 253 256 258 259 260 261 262 263 264 265
244 243 242 242 239 236 235 233 232 232 233 236 238 237 236 235 233 232 232 233 236 238 238 237 235 235 236 237 239 242 245 247 251 254 257 259 261 263 266 268 270 272
244 243 243 245 245 242 240 239 236 232 230 232 235 236 237 237 236 236 235 235 235 237 239 240 240 239 238 238 239 241 244 246 248 252 254 257 259 262 266 270 273 275
245 244 242 244 247 248 246 244 241 238 236 233 232 232 233 234 235 236 236 237 237 238 240 242 244 243 243 242 241 242 244 246 248 251 253 255 258 261 263 266 269 271
248 246 242 239 241 246 248 246 243 241 240 238 235 233 232 232 234 235 236 237 238 239 241 243 244 245 245 245 244 244 245 246 248 251 253 255 257 259 261 263 265 267
241 239 234 228 229 238 246 247 245 242 240 240 239 237 235 234 235 236 237 237 238 238 240 242 244 244 246 247 248 248 248 248 249 252 254 256 257 258 260 262 263 264
233 232 230 226 232 248 255 252 250 247 243 241 240 239 239 239 238 238 237 237 237 237 238 241 243 244 247 250 253 254 253 252 251 252 253 254 256 257 258 259 259 260
240 240 239 234 234 247 257 255 253 253 254 250 243 238 238 240 241 239 238 237 238 237 238 240 243 244 246 248 250 251 251 251 252 252 253 254 254 255 256 256 257 258
249 251 252 251 248 251 258 263 265 266 268 265 251 238 236 238 240 240 239 239 239 238 237 238 240 240 241 242 243 245 246 247 249 251 251 252 253 254 256 257 258 259
Height
5957 5958 5959 5961 5962 5963 5964 5965 5965 5966 5966 5967 5968 5968 5968 5968 5969 5970 5970 5971 5971 5972 5972 5972 5973 5973 5973 5973 5973 5973 5973 5973 5973 5973 5974 5974 5974 5974 5974 5975 5975 5976
5956 5957 5958 5960 5961 5962 5963 5964 5965 5965 5966 5967 5967 5967 5967 5968 5969 5969 5970 5970 5971 5971 5972 5972 5973 5973 5973 5973 5973 5973 5973 5972 5973 5973 5973 5973 5973 5973 5973 5974 5974 5975
5955 5956 5957 5958 5959 5961 5962 5963 5964 5965 5965 5966 5966 5967 5967 5968 5968 5969 5969 5970 5971 5971 5972 5972 5972 5973 5973 5973 5973 5973 5973 5972 5972 5972 5972 5972 5972 5972 5973 5973 5974 5974
5953 5955 5956 5957 5958 5960 5961 5962 5963 5963 5964 5965 5965 5966 5967 5967 5968 5969 5969 5970 5971 5971 5972 5972 5972 5972 5973 5973 5973 5973 5973 5973 5972 5972 5972 5972 5972 5972 5972 5973 5973 5974
5952 5953 5955 5956 5957 5958 5959 5960 5961 5962 5963 5964 5965 5965 5966 5967 5967 5968 5969 5970 5971 5971 5971 5972 5972 5972 5972 5972 5973 5973 5973 5973 5973 5973 5973 5972 5972 5972 5972 5972 5973 5973
5950 5952 5953 5954 5956 5957 5957 5959 5960 5961 5962 5963 5964 5964 5965 5965 5966 5967 5968 5969 5970 5970 5971 5971 5971 5971 5972 5972 5972 5972 5973 5973 5973 5973 5973 5973 5972 5972 5972 5972 5972 5972
5948 5950 5951 5952 5953 5954 5955 5957 5958 5959 5960 5961 5962 5963 5963 5964 5964 5965 5966 5967 5968 5969 5969 5970 5970 5971 5971 5971 5971 5971 5972 5972 5972 5972 5972 5972 5972 5972 5972 5972 5972 5972
5946 5947 5948 5950 5951 5952 5953 5954 5956 5957 5958 5959 5960 5961 5961 5962 5963 5964 5964 5965 5966 5967 5968 5968 5969 5969 5970 5970 5970 5970 5970 5970 5971 5971 5971 5971 5971 5971 5971 5971 5972 5972
5944 5945 5947 5948 5949 5950 5951 5952 5953 5955 5956 5956 5957 5958 5959 5960 5961 5962 5963 5964 5964 5965 5966 5967 5968 5968 5969 5969 5969 5969 5969 5969 5969 5970 5970 5970 5970 5971 5971 5971 5971 5971
5942 5943 5945 5946 5947 5948 5949 5950 5951 5953 5953 5954 5955 5956 5957 5958 5959 5960 5961 5962 5962 5963 5964 5965 5966 5967 5967 5968 5968 5968 5968 5968 5968 5969 5969 5969 5970 5970 5970 5971 5971 5971
5940 5941 5943 5944 5945 5946 5947 5948 5949 5950 5951 5952 5953 5954 5955 5956 5957 5958 5958 5959 5960 5961 5962 5963 5964 5965 5965 5966 5966 5967 5967 5967 5967 5967 5968 5968 5969 5969 5969 5970 5970 5970
5937 5939 5940 5941 5942 5944 5945 5946 5947 5949 5949 5950 5951 5952 5953 5954 5955 5956 5957 5957 5958 5959 5960 5961 5962 5963 5963 5964 5964 5965 5965 5965 5966 5966 5967 5967 5967 5968 5968 5968 5969 5969
5934 5936 5938 5939 5941 5942 5944 5945 5946 5947 5948 5948 5949 5950 5951 5952 5953 5954 5955 5955 5956 5957 5958 5959 5960 5960 5961 5961 5962 5962 5963 5963 5964 5965 5965 5965 5966 5966 5966 5967 5967 5967
5932 5934 5936 5937 5939 5940 5941 5942 5943 5944 5945 5946 5947 5948 5950 5950 5951 5952 5953 5954 5955 5955 5956 5956 5957 5958 5958 5959 5960 5960 5961 5961 5962 5963 5963 5963 5964 5964 5964 5965 5965 5965
5930 5931 5933 5934 5935 5937 5938 5939 5940 5941 5942 5943 5945 5946 5947 5949 5949 5950 5951 5952 5953 5953 5953 5954 5955 5955 5956 5956 5957 5958 5959 5959 5960 5960 5961 5961 5962 5962 5962 5962 5963 5963
5927 5928 5929 5930 5932 5934 5935 5936 5937 5938 5939 5940 5941 5942 5944 5945 5947 5948 5949 5950 5950 5950 5951 5952 5953 5953 5953 5954 5955 5956 5956 5957 5958 5958 5959 5959 5960 5960 5960 5960 5961 5961
5923 5923 5924 5926 5928 5930 5932 5934 5935 5936 5937 5938 5938 5938 5939 5940 5942 5944 5946 5947 5947 5948 5948 5949 5949 5950 5951 5952 5953 5953 5954 5955 5956 5956 5957 5957 5958 5958 5959 5959 5959 5959
5918 5919 5921 5922 5924 5926 5927 5929 5931 5933 5934 5935 5936 5936 5936 5937 5938 5940 5941 5943 5944 5945 5945 5946 5946 5946 5947 5949 5950 5951 5952 5953 5953 5954 5955 5955 5956 5956 5956 5957 5957 5957
5914 5915 5917 5918 5919 5921 5922 5923 5925 5926 5929 5931 5932 5934 5935 5936 5936 5937 5938 5939 5941 5942 5943 5943 5943 5943 5944 5945 5946 5947 5948 5950 5951 5952 5952 5953 5953 5954 5954 5955 5955 5956
5910 5911 5912 5913 5915 5917 5918 5918 5919 5920 5923 5925 5927 5930 5932 5933 5933 5934 5935 5936 5937 5938 5940 5940 5941 5940 5941 5942 5943 5944 5945 5947 5948 5948 5949 5950 5950 5951 5952 5952 5953 5954
5906 5907 5909 5910 5911 5912 5914 5914 5914 5915 5917 5919 5922 5924 5926 5927 5928 5929 5931 5932 5933 5935 5937 5938 5938 5938 5938 5939 5940 5941 5942 5943 5944 5945 5946 5946 5947 5948 5949 5949 5950 5951
5903 5904 5906 5907 5907 5908 5909 5909 5909 5910 5912 5914 5916 5918 5920 5922 5924 5925 5927 5928 5930 5932 5933 5934 5934 5934 5935 5936 5937 5938 5939 5940 5941 5941 5942 5943 5944 5944 5945 5946 5947 5948
5900 5902 5903 5904 5904 5905 5905 5905 5905 5906 5907 5909 5911 5913 5916 5918 5919 5920 5922 5924 5926 5927 5928 5928 5928 5930 5932 5933 5934 5936 5937 5937 5938 5939 5939 5940 5940 5941 5942 5943 5944 5945
5897 5899 5900 5901 5902 5902 5902 5902 5902 5902 5903 5905 5906 5908 5911 5913 5914 5915 5917 5920 5922 5923 5923 5923 5923 5926 5930 5931 5932 5933 5934 5935 5935 5936 5936 5937 5937 5938 5939 5940 5940 5941
5894 5896 5897 5898 5899 5899 5898 5898 5898 5899 5900 5901 5902 5904 5906 5909 5910 5910 5913 5916 5917 5918 5919 5918 5919 5923 5927 5927 5928 5928 5929 5930 5931 5932 5933 5933 5934 5934 5935 5936 5937 5937
5892 5892 5893 5894 5895 5896 5896 5896 5897 5899 5900 5900 5900 5901 5903 5905 5905 5906 5909 5912 5913 5914 5914 5914 5915 5919 5920 5921 5922 5922 5923 5925 5926 5927 5929 5929 5930 5931 5931 5932 5933 5933